Zurück zum Katalog

COSMOS 839 DEB

AktivUNKNOWN
NORAD 10620·DEBRIS·🇷🇺 Russia

Gestartet Jul 8, 1976 von Plesetsk Cosmodrome

Loading…

Nächste Überflüge (nächste 24 Stunden)

TLE

AktuellSource: Space-Track

Epoche: Sep 14, 2026, 05:24 UTC

1 10620U 76067AU  26257.22529079  .00000718  00000-0  26520-2 0  9996
2 10620  65.9550 351.2644 0652923 268.8622 107.1286 12.42439214266457

Verfolge COSMOS 839 DEB in Echtzeit mit AllMySat

Download on the App Store